Ankeny, IA

8:46 AM CDT on September 26, 2017 (GMT -0500)
Ankeny Regional

Weather History for KIKV - February, 2013

Change the Weather History Date:

Monday, February 25, 2013

  Actual Average (KDSM) Record (KDSM)
Temperature  
Mean Temperature 34 °F -  
Max Temperature 41 °F 38 °F 69 °F (1995)
Min Temperature 26 °F 21 °F -8 °F (2010)
Degree Days  
Heating Degree Days 32    
Moisture  
Dew Point 27 °F    
Average Humidity 78    
Maximum Humidity 86    
Minimum Humidity 61    
Precipitation  
Precipitation 0.00 in - - ()
Sea Level Pressure  
Sea Level Pressure 30.02 in    
Wind  
Wind Speed 3 mph (NE)    
Max Wind Speed 12 mph    
Max Gust Speed -    
Visibility 7 miles    
Events      
Averages and records for this station are not official NWS values.
T = Trace of Precipitation, MM = Missing Value Source: NWS Daily Summary

Daily Weather History Graph

Daily Weather History Graph

Search for Another Location

Airport or City:

Trip Planner

Search our weather history database for the weather conditions in past years. The results will help you decide how hot, cold, wet, or windy it might be!

Date:

Astronomy

Feb. 25, 2013 Rise Set
Actual Time 6:54 AM CST 6:00 PM CST
Civil Twilight 6:26 AM CST 6:28 PM CST
Nautical Twilight 5:54 AM CST 7:00 PM CST
Astronomical Twilight 5:22 AM CST 7:32 PM CST
Moon 6:15 PM CST (2/25) 6:24 AM CST (2/25)
Length of Visible Light 12h 01m
Length of Day
11h 05m
Full, 100% of the Moon is Illuminated
Feb 25
Full
Feb 25
Full
Mar 4
Last Quarter
Mar 11
New
Mar 19
First Quarter

Hourly Weather History & Observations

Time (CST) Temp. Windchill Dew Point Humidity Pressure Visibility Wind Dir Wind Speed Gust Speed Precip Events Conditions
12:15 AM 30.2 °F - 26.6 °F 86% 30.07 in 7.0 mi Calm Calm - N/A   Mostly Cloudy
12:35 AM 30.2 °F - 26.6 °F 86% 30.07 in 7.0 mi Calm Calm - N/A   Mostly Cloudy
12:55 AM 30.2 °F - 26.6 °F 86% 30.06 in 7.0 mi Calm Calm - N/A   Mostly Cloudy
1:15 AM 30.2 °F - 26.6 °F 86% 30.06 in 7.0 mi Calm Calm - N/A   Overcast
1:35 AM 30.2 °F - 26.6 °F 86% 30.07 in 7.0 mi Calm Calm - N/A   Overcast
1:55 AM 30.2 °F - 26.6 °F 86% 30.07 in 7.0 mi Calm Calm - N/A   Overcast
2:15 AM 30.2 °F - 26.6 °F 86% 30.06 in 7.0 mi Calm Calm - N/A   Overcast
2:35 AM 30.2 °F - 26.6 °F 86% 30.06 in 7.0 mi Calm Calm - N/A   Mostly Cloudy
2:55 AM 30.2 °F - 26.6 °F 86% 30.06 in 5.0 mi Calm Calm - N/A   Scattered Clouds
3:15 AM 30.2 °F - 26.6 °F 86% 30.06 in 7.0 mi Calm Calm - N/A   Scattered Clouds
3:35 AM 28.4 °F 24.6 °F 24.8 °F 86% 30.05 in 5.0 mi NE 3.5 mph - N/A   Clear
3:55 AM 28.4 °F - 24.8 °F 86% 30.07 in 5.0 mi Calm Calm - N/A   Mostly Cloudy
4:15 AM 28.4 °F - 24.8 °F 86% 30.07 in 5.0 mi Calm Calm - N/A   Overcast
4:35 AM 30.2 °F 26.7 °F 26.6 °F 86% 30.06 in 5.0 mi North 3.5 mph - N/A   Mostly Cloudy
4:55 AM 28.4 °F 22.2 °F 24.8 °F 86% 30.06 in 5.0 mi NNE 5.8 mph - N/A   Scattered Clouds
5:15 AM 28.4 °F - 24.8 °F 86% 30.06 in 5.0 mi Calm Calm - N/A   Mostly Cloudy
5:35 AM 28.4 °F - 24.8 °F 86% 30.05 in 5.0 mi Calm Calm - N/A   Overcast
5:55 AM 28.4 °F 24.6 °F 24.8 °F 86% 30.05 in 5.0 mi NE 3.5 mph - N/A   Haze
6:15 AM 28.4 °F 23.3 °F 23.0 °F 80% 30.06 in 5.0 mi NNE 4.6 mph - N/A   Haze
6:35 AM 28.4 °F 23.3 °F 24.8 °F 86% 30.06 in 5.0 mi North 4.6 mph - N/A   Clear
6:55 AM 26.6 °F - 23.0 °F 86% 30.07 in 5.0 mi Calm Calm - N/A   Mostly Cloudy
7:15 AM 28.4 °F - 24.8 °F 86% 30.08 in 7.0 mi Calm Calm - N/A   Overcast
7:35 AM 28.4 °F 24.6 °F 24.8 °F 86% 30.08 in 5.0 mi North 3.5 mph - N/A   Overcast
7:55 AM 30.2 °F - 24.8 °F 80% 30.08 in 5.0 mi Calm Calm - N/A   Haze
8:15 AM 30.2 °F 26.7 °F 24.8 °F 80% 30.07 in 5.0 mi ENE 3.5 mph - N/A   Haze
8:35 AM 30.2 °F - 26.6 °F 86% 30.08 in 7.0 mi Calm Calm - N/A   Clear
8:55 AM 30.2 °F - 26.6 °F 86% 30.08 in 7.0 mi Calm Calm - N/A   Clear
9:15 AM 32.0 °F 27.5 °F 26.6 °F 80% 30.08 in 7.0 mi NNE 4.6 mph - N/A   Scattered Clouds
9:35 AM 33.8 °F 30.8 °F 26.6 °F 75% 30.08 in 7.0 mi NE 3.5 mph - N/A   Mostly Cloudy
9:55 AM 33.8 °F - 26.6 °F 75% 30.08 in 7.0 mi Calm Calm - N/A   Overcast
10:15 AM 33.8 °F 30.8 °F 26.6 °F 75% 30.08 in 7.0 mi NE 3.5 mph - N/A   Overcast
10:35 AM 33.8 °F - 26.6 °F 75% 30.07 in 7.0 mi Calm Calm - N/A   Overcast
10:55 AM 35.6 °F 31.7 °F 26.6 °F 70% 30.07 in 7.0 mi NE 4.6 mph - N/A   Mostly Cloudy
11:15 AM 35.6 °F 32.8 °F 26.6 °F 70% 30.07 in 7.0 mi NE 3.5 mph - N/A   Mostly Cloudy
11:35 AM 37.4 °F 34.9 °F 26.6 °F 65% 30.07 in 10.0 mi NE 3.5 mph - N/A   Overcast
11:55 AM 37.4 °F 33.8 °F 26.6 °F 65% 30.07 in 7.0 mi ENE 4.6 mph - N/A   Mostly Cloudy
12:15 PM 39.2 °F 34.2 °F 26.6 °F 61% 30.05 in 10.0 mi NE 6.9 mph - N/A   Mostly Cloudy
12:35 PM 39.2 °F 35.9 °F 26.6 °F 61% 30.04 in 10.0 mi NE 4.6 mph - N/A   Scattered Clouds
12:55 PM 39.2 °F 37.0 °F 26.6 °F 61% 30.03 in 10.0 mi ENE 3.5 mph - N/A   Clear
1:15 PM 39.2 °F 34.2 °F 26.6 °F 61% 30.02 in 10.0 mi ENE 6.9 mph - N/A   Scattered Clouds
1:35 PM 39.2 °F 34.2 °F 26.6 °F 61% 30.02 in 10.0 mi ENE 6.9 mph - N/A   Overcast
1:55 PM 39.2 °F 34.2 °F 26.6 °F 61% 30.01 in 10.0 mi NE 6.9 mph - N/A   Overcast
2:15 PM 39.2 °F 34.2 °F 26.6 °F 61% 30.01 in 10.0 mi NE 6.9 mph - N/A   Overcast
2:35 PM 39.2 °F 34.2 °F 26.6 °F 61% 30.01 in 10.0 mi NE 6.9 mph - N/A   Scattered Clouds
2:55 PM 39.2 °F 33.6 °F 26.6 °F 61% 30.00 in 10.0 mi NE 8.1 mph - N/A   Clear
3:15 PM 39.2 °F 35.0 °F 28.4 °F 65% 30.00 in 10.0 mi ENE 5.8 mph - N/A   Clear
3:35 PM 41.0 °F 38.0 °F 28.4 °F 61% 29.99 in 10.0 mi ENE 4.6 mph - N/A   Clear
3:55 PM 39.2 °F 35.0 °F 30.2 °F 70% 29.99 in 10.0 mi NE 5.8 mph - N/A   Clear
4:15 PM 39.2 °F 34.2 °F 30.2 °F 70% 29.99 in 10.0 mi NE 6.9 mph - N/A   Clear
4:35 PM 39.2 °F 35.0 °F 30.2 °F 70% 29.99 in 10.0 mi NNE 5.8 mph - N/A   Clear
4:55 PM 39.2 °F 35.9 °F 30.2 °F 70% 29.99 in 7.0 mi NNE 4.6 mph - N/A   Clear
5:15 PM 37.4 °F 32.8 °F 30.2 °F 75% 29.99 in 7.0 mi NNE 5.8 mph - N/A   Clear
5:35 PM 37.4 °F 33.8 °F 30.2 °F 75% 29.98 in 7.0 mi NNE 4.6 mph - N/A   Scattered Clouds
5:55 PM 35.6 °F 31.7 °F 30.2 °F 81% 29.98 in 7.0 mi NNE 4.6 mph - N/A   Clear
6:15 PM 35.6 °F 29.9 °F 30.2 °F 81% 29.97 in 7.0 mi NNE 6.9 mph - N/A   Clear
6:35 PM 35.6 °F 30.7 °F 30.2 °F 81% 29.97 in 7.0 mi NNE 5.8 mph - N/A   Clear
6:55 PM 35.6 °F 29.9 °F 28.4 °F 75% 29.98 in 7.0 mi NNE 6.9 mph - N/A   Clear
7:15 PM 33.8 °F 27.0 °F 28.4 °F 81% 29.97 in 5.0 mi NNE 8.1 mph - N/A   Haze
7:35 PM 33.8 °F 27.0 °F 28.4 °F 81% 29.96 in 5.0 mi NNE 8.1 mph - N/A   Haze
8:15 PM 33.8 °F 27.7 °F 28.4 °F 81% 29.95 in 4.0 mi NE 6.9 mph - N/A   Clear
8:55 PM 33.8 °F 26.4 °F 28.4 °F 81% 29.94 in 5.0 mi NNE 9.2 mph - N/A   Clear
9:15 PM 33.8 °F 27.0 °F 28.4 °F 81% 29.94 in 5.0 mi NNE 8.1 mph - N/A   Haze
9:35 PM 33.8 °F 26.4 °F 28.4 °F 81% 29.93 in 5.0 mi NNE 9.2 mph - N/A   Haze
9:55 PM 33.8 °F 27.7 °F 28.4 °F 81% 29.93 in 5.0 mi NE 6.9 mph - N/A   Haze
10:15 PM 33.8 °F 26.4 °F 28.4 °F 81% 29.92 in 5.0 mi NNE 9.2 mph - N/A   Haze
10:35 PM 33.8 °F 25.3 °F 28.4 °F 81% 29.92 in 5.0 mi NNE 11.5 mph - N/A   Haze
10:55 PM 33.8 °F 27.0 °F 28.4 °F 81% 29.91 in 5.0 mi NE 8.1 mph - N/A   Haze
11:15 PM 33.8 °F 28.6 °F 28.4 °F 81% 29.91 in 5.0 mi NE 5.8 mph - N/A   Haze
11:35 PM 32.0 °F 26.4 °F 26.6 °F 80% 29.91 in 5.0 mi NE 5.8 mph - N/A   Haze
11:55 PM 32.0 °F 26.4 °F 26.6 °F 80% 29.91 in 5.0 mi NNE 5.8 mph - N/A   Haze